Weather History for KJYO - February, 2013

Change the Weather History Date:

Friday, February 8, 2013

  Actual Average (KIAD) Record (KIAD)
Temperature  
Mean Temperature 37 °F 35 °F  
Max Temperature 42 °F 45 °F 70 °F (1965)
Min Temperature 32 °F 25 °F -6 °F (1967)
Degree Days  
Heating Degree Days 28 30  
Month to date heating degree days 245  
Since 1 July heating degree days 3029  
Cooling Degree Days 0 0  
Month to date cooling degree days 0  
Year to date cooling degree days 0  
Moisture  
Dew Point 33 °F    
Average Humidity 89    
Maximum Humidity 100    
Minimum Humidity 70    
Precipitation  
Precipitation 0.12 in 0.10 in 0.84 in (1997)
Month to date precipitation 0.79  
Year to date precipitation 3.47  
Snow  
Snow 0.00 in 0.30 in 6.80 in (1997)
Month to date snowfall 2.5  
Since 1 July snowfall 13.8  
Snow Depth -    
Sea Level Pressure  
Sea Level Pressure 29.93 in    
Wind  
Wind Speed 9 mph (North)    
Max Wind Speed 29 mph    
Max Gust Speed 48 mph    
Visibility 8 miles    
Events Rain , Snow    
T = Trace of Precipitation, MM = Missing Value Source: NWS Daily Summary

Daily Weather History Graph

Daily Weather History Graph

Search for Another Location

Airport or City:

Trip Planner

Search our weather history database for the weather conditions in past years. The results will help you decide how hot, cold, wet, or windy it might be!

Date:

Astronomy

Feb. 08, 2013 Rise Set
Actual Time 7:09 AM EST 5:39 PM EST
Civil Twilight 6:41 AM EST 6:07 PM EST
Nautical Twilight 6:10 AM EST 6:39 PM EST
Astronomical Twilight 5:39 AM EST 7:10 PM EST
Moon 5:36 AM EST (2/8) 4:11 PM EST (2/8)
Length of Visible Light 11h 25m
Length of Day
10h 30m
Waning Crescent, 3% of the Moon is Illuminated
Feb 8
Waning Crescent
Feb 10
New
Feb 17
First Quarter
Feb 25
Full
Mar 4
Last Quarter

Hourly Weather History & Observations

Time (EST) Temp. Windchill Dew Point Humidity Pressure Visibility Wind Dir Wind Speed Gust Speed Precip Events Conditions
12:15 AM 35.6 °F 29.9 °F 32.0 °F 87% 30.21 in 10.0 mi ENE 6.9 mph - N/A   Overcast
12:35 AM 35.6 °F 30.7 °F 32.0 °F 87% 30.19 in 10.0 mi ENE 5.8 mph - N/A   Overcast
12:55 AM 35.6 °F 30.7 °F 32.0 °F 87% 30.18 in 10.0 mi NE 5.8 mph - N/A   Overcast
1:15 AM 35.6 °F 30.7 °F 32.0 °F 87% 30.17 in 10.0 mi ENE 5.8 mph - N/A   Overcast
1:35 AM 35.6 °F 30.7 °F 32.0 °F 87% 30.15 in 10.0 mi ENE 5.8 mph - N/A   Overcast
1:55 AM 35.6 °F 31.7 °F 32.0 °F 87% 30.15 in 10.0 mi East 4.6 mph - N/A   Overcast
2:15 AM 35.6 °F 29.9 °F 30.2 °F 81% 30.13 in 10.0 mi East 6.9 mph - N/A   Overcast
2:35 AM 35.6 °F 31.7 °F 30.2 °F 81% 30.13 in 10.0 mi ENE 4.6 mph - N/A   Overcast
2:55 AM 33.8 °F 29.6 °F 32.0 °F 93% 30.12 in 5.0 mi East 4.6 mph - N/A Snow Light Snow
3:15 AM 33.8 °F 29.6 °F 32.0 °F 93% 30.11 in 2.5 mi NE 4.6 mph - N/A Snow Light Snow
3:35 AM 32.0 °F 28.7 °F 32.0 °F 100% 30.10 in 2.5 mi NNE 3.5 mph - N/A Snow Light Snow
3:55 AM 32.0 °F 27.5 °F 32.0 °F 100% 30.09 in 2.0 mi NE 4.6 mph - N/A Snow Light Snow
4:35 AM 32.0 °F - 32.0 °F 100% 30.07 in 2.5 mi Calm Calm - N/A Snow Light Snow
4:55 AM 32.0 °F 28.7 °F 32.0 °F 100% 30.06 in 1.8 mi NNE 3.5 mph - N/A Snow Light Snow
5:15 AM 32.0 °F 27.5 °F 32.0 °F 100% 30.05 in 3.0 mi NNE 4.6 mph - N/A Snow Light Snow
5:35 AM 32.0 °F - 32.0 °F 100% 30.04 in 5.0 mi Calm Calm - N/A Snow Light Snow
6:15 AM 32.0 °F 25.6 °F 32.0 °F 100% 30.03 in 5.0 mi North 6.9 mph - N/A Snow Light Snow
6:35 AM 32.0 °F 24.8 °F 32.0 °F 100% 30.02 in 5.0 mi North 8.1 mph - N/A   Overcast
7:15 AM 32.0 °F 24.2 °F 32.0 °F 100% 30.00 in 5.0 mi North 9.2 mph - N/A   Overcast
7:35 AM 32.0 °F 25.6 °F 32.0 °F 100% 29.99 in 4.0 mi NNE 6.9 mph - N/A   Overcast
7:55 AM 32.0 °F 24.8 °F 32.0 °F 100% 29.98 in 3.0 mi NNE 8.1 mph - N/A   Overcast
8:15 AM 32.0 °F 25.6 °F 32.0 °F 100% 29.97 in 4.0 mi NNE 6.9 mph - N/A   Overcast
8:35 AM 32.0 °F 23.6 °F 32.0 °F 100% 29.97 in 5.0 mi North 10.4 mph - N/A   Overcast
8:55 AM 33.8 °F 25.8 °F 33.8 °F 100% 29.95 in 5.0 mi North 10.4 mph - N/A   Overcast
9:15 AM 33.8 °F 25.8 °F 33.8 °F 100% 29.94 in 7.0 mi North 10.4 mph 18.4 mph N/A   Overcast
9:35 AM 33.8 °F 24.8 °F 33.8 °F 100% 29.93 in 7.0 mi NNE 12.7 mph 16.1 mph N/A   Overcast
9:55 AM 33.8 °F 25.3 °F 33.8 °F 100% 29.91 in 7.0 mi North 11.5 mph - N/A   Overcast
10:15 AM 35.6 °F 28.6 °F 33.8 °F 93% 29.90 in 7.0 mi North 9.2 mph - N/A   Overcast
10:35 AM 35.6 °F 28.6 °F 33.8 °F 93% 29.89 in 10.0 mi North 9.2 mph - N/A   Overcast
10:55 AM 35.6 °F 29.2 °F 35.6 °F 100% 29.89 in 10.0 mi North 8.1 mph - N/A   Overcast
11:15 AM 35.6 °F 31.7 °F 35.6 °F 100% 29.87 in 5.0 mi North 4.6 mph - N/A   Overcast
11:35 AM 35.6 °F 30.7 °F 35.6 °F 100% 29.87 in 3.0 mi North 5.8 mph - 0.02 in   Overcast
11:55 AM 37.4 °F 31.4 °F 37.4 °F 100% 29.85 in 5.0 mi North 8.1 mph - 0.07 in   Overcast
12:15 PM 37.4 °F 32.1 °F 37.4 °F 100% 29.84 in 7.0 mi North 6.9 mph - 0.03 in   Overcast
12:35 PM 39.2 °F 33.6 °F 37.4 °F 93% 29.81 in 10.0 mi NNE 8.1 mph - 0.04 in   Overcast
12:55 PM 41.0 °F 35.2 °F 39.2 °F 93% 29.82 in 7.0 mi North 9.2 mph - 0.04 in   Overcast
1:15 PM 39.2 °F 32.5 °F 39.2 °F 100% 29.82 in 7.0 mi NNW 10.4 mph - 0.01 in   Overcast
1:35 PM 39.2 °F 33.0 °F 37.4 °F 93% 29.80 in 7.0 mi NNW 9.2 mph - 0.01 in   Overcast
1:55 PM 39.2 °F 32.5 °F 37.4 °F 93% 29.80 in 7.0 mi NW 10.4 mph - 0.01 in Rain Light Rain
2:15 PM 37.4 °F 29.8 °F 37.4 °F 100% 29.79 in 10.0 mi NNW 11.5 mph - N/A   Overcast
2:35 PM 37.4 °F 30.8 °F 37.4 °F 100% 29.78 in 7.0 mi NNW 9.2 mph - N/A   Overcast
2:55 PM 37.4 °F 29.8 °F 37.4 °F 100% 29.78 in 10.0 mi NNW 11.5 mph - N/A   Overcast
3:15 PM 39.2 °F 32.0 °F 37.4 °F 93% 29.79 in 10.0 mi NNW 11.5 mph - N/A   Overcast
3:35 PM 39.2 °F 33.6 °F 37.4 °F 93% 29.79 in 10.0 mi NNW 8.1 mph - N/A   Overcast
3:55 PM 41.0 °F 37.1 °F 37.4 °F 87% 29.79 in 10.0 mi North 5.8 mph - N/A   Overcast
4:15 PM 41.0 °F 35.8 °F 37.4 °F 87% 29.79 in 10.0 mi NW 8.1 mph - N/A   Overcast
4:35 PM 41.0 °F 35.2 °F 37.4 °F 87% 29.80 in 10.0 mi NW 9.2 mph - N/A   Overcast
4:55 PM 41.0 °F 34.3 °F 37.4 °F 87% 29.80 in 10.0 mi NW 11.5 mph 16.1 mph N/A   Overcast
5:15 PM 41.0 °F 33.9 °F 37.4 °F 87% 29.79 in 10.0 mi WNW 12.7 mph 21.9 mph N/A   Overcast
5:35 PM 41.0 °F 32.8 °F 37.4 °F 87% 29.80 in 10.0 mi NW 16.1 mph 23.0 mph N/A   Mostly Cloudy
5:55 PM 42.8 °F 36.2 °F 37.4 °F 81% 29.81 in 10.0 mi NW 12.7 mph 28.8 mph N/A   Overcast
6:15 PM 42.8 °F 36.6 °F 37.4 °F 81% 29.81 in 10.0 mi NW 11.5 mph 23.0 mph N/A   Overcast
6:35 PM 42.8 °F 36.6 °F 35.6 °F 76% 29.82 in 10.0 mi NW 11.5 mph 20.7 mph N/A   Overcast
6:55 PM 42.8 °F 35.1 °F 35.6 °F 76% 29.82 in 10.0 mi WNW 16.1 mph 26.5 mph N/A   Overcast
7:15 PM 41.0 °F 33.1 °F 33.8 °F 76% 29.82 in 10.0 mi WNW 15.0 mph 25.3 mph N/A   Overcast
7:35 PM 41.0 °F 31.9 °F 32.0 °F 70% 29.83 in 10.0 mi NW 19.6 mph 25.3 mph N/A   Overcast
7:55 PM 39.2 °F 30.5 °F 32.0 °F 75% 29.83 in 10.0 mi NW 16.1 mph 27.6 mph N/A   Overcast
8:15 PM 39.2 °F 29.3 °F 32.0 °F 75% 29.85 in 10.0 mi NW 20.7 mph 28.8 mph N/A   Overcast
8:35 PM 37.4 °F 26.6 °F 30.2 °F 75% 29.87 in 10.0 mi NNW 21.9 mph 32.2 mph N/A   Overcast
8:55 PM 37.4 °F 26.1 °F 30.2 °F 75% 29.88 in 10.0 mi NNW 24.2 mph 38.0 mph N/A   Overcast
9:15 PM 35.6 °F 25.2 °F 28.4 °F 75% 29.88 in 10.0 mi NW 18.4 mph 28.8 mph N/A   Mostly Cloudy
9:35 PM 35.6 °F 22.7 °F 28.4 °F 75% 29.88 in 10.0 mi WNW 28.8 mph 41.4 mph N/A   Clear
9:55 PM 35.6 °F 24.2 °F 28.4 °F 75% 29.88 in 10.0 mi NW 21.9 mph 43.7 mph N/A   Scattered Clouds
10:15 PM 35.6 °F 23.2 °F 26.6 °F 70% 29.89 in 10.0 mi NW 26.5 mph 36.8 mph N/A   Scattered Clouds
10:35 PM 35.6 °F 23.2 °F 26.6 °F 70% 29.89 in 10.0 mi NW 26.5 mph 41.4 mph N/A   Scattered Clouds
10:55 PM 35.6 °F 24.8 °F 26.6 °F 70% 29.90 in 10.0 mi NNW 19.6 mph 44.9 mph N/A   Mostly Cloudy
11:15 PM 33.8 °F 22.2 °F 26.6 °F 75% 29.92 in 10.0 mi NW 20.7 mph 40.3 mph N/A   Overcast
11:35 PM 35.6 °F 23.2 °F 26.6 °F 70% 29.92 in 10.0 mi NW 26.5 mph 48.3 mph N/A   Overcast
11:55 PM 35.6 °F 25.9 °F 26.6 °F 70% 29.95 in 10.0 mi NW 16.1 mph 34.5 mph N/A   Overcast